Cloud_Cover
0 0 0 0 0 0 0 0 0 0 0 0 0 0 0 0 26 70 97 55 0 99 96 100 14 0 0 0 0 0 0 14 99 99 100 100 100 97 36 58 40 5 8 6 5 28 16 5 60
5 1 0 0 0 0 0 0 0 0 0 0 0 0 0 0 0 19 87 0 0 64 94 72 38 59 0 0 0 0 0 0 12 39 95 100 100 100 83 100 100 100 75 9 17 46 69 61 15
5 5 4 0 0 0 0 0 0 0 0 0 0 0 0 0 0 0 0 0 0 96 64 100 87 98 4 0 0 0 0 0 0 0 5 12 14 93 80 36 100 100 100 97 22 32 9 37 15
100 90 11 2 0 5 5 5 5 0 0 0 0 0 0 0 0 0 0 0 3 63 100 100 100 93 74 0 0 12 2 13 53 50 94 100 100 73 23 5 5 73 100 100 100 84 43 5 5
100 100 46 10 0 0 5 13 9 0 0 0 0 0 0 0 0 0 0 0 0 0 69 100 100 81 24 0 0 0 5 76 100 100 100 100 100 100 100 66 41 5 1 10 94 100 16 77 57
100 100 100 100 33 1 1 11 5 2 0 0 0 0 0 0 0 0 0 0 0 0 7 100 100 97 53 33 0 0 0 5 40 59 34 74 99 100 36 13 87 100 89 27 47 5 3 23 32
100 100 100 100 100 97 5 24 5 5 4 0 0 1 0 0 0 2 0 0 0 0 0 5 53 80 66 4 2 0 0 0 5 5 5 15 82 100 100 100 100 100 66 20 70 13 5 5 5
100 100 92 40 94 100 47 1 95 80 16 5 5 17 3 3 0 0 0 2 0 0 0 4 0 35 100 46 59 0 0 0 0 0 5 5 5 47 93 5 64 100 99 54 65 100 100 29 4
62 44 79 21 100 100 100 98 70 99 20 5 17 100 59 5 10 5 9 5 5 5 5 5 5 5 0 53 100 90 6 0 0 0 2 0 5 5 64 51 5 5 8 40 88 55 100 29 28
55 20 80 100 100 21 98 100 100 100 100 61 10 10 19 5 5 5 5 10 5 5 5 5 5 5 18 5 5 14 97 36 0 0 0 0 0 5 5 5 5 5 4 5 5 49 10 73 14
73 79 100 54 31 86 100 100 100 100 100 100 100 87 19 44 46 89 78 51 34 5 5 5 8 38 30 21 34 24 12 72 84 1 0 0 2 5 4 5 5 32 5 5 5 1 3 8 12
16 22 96 5 76 100 100 95 99 45 99 100 100 100 100 100 100 99 100 100 100 100 100 100 97 60 97 67 46 39 100 100 100 100 77 6 13 22 0 3 76 76 89 16 8 22 6 7 4
98 45 100 67 54 64 95 78 33 52 7 13 12 14 5 9 5 5 5 5 28 66 56 86 98 100 99 68 83 100 100 87 100 100 94 12 5 1 0 2 86 100 100 86 29 21 74 56 17
7 5 5 12 44 92 100 100 84 10 5 5 5 5 23 5 5 5 5 89 26 5 5 5 5 2 2 2 1 1 5 8 43 100 66 80 49 10 5 9 0 47 100 98 44 36 34 100 80
5 5 5 9 5 5 6 8 44 5 4 0 0 5 5 6 31 100 97 97 78 68 77 84 64 24 40 22 5 3 0 0 0 30 100 6 6 11 4 74 63 7 8 58 1 6 9 29 76
1 0 8 16 36 10 5 37 46 5 5 2 0 0 4 5 5 5 5 5 3 0 4 4 0 2 0 2 0 0 0 0 0 0 87 53 68 5 3 0 0 0 0 0 4 0 1 14 4
0 0 1 13 44 83 5 6 5 5 15 6 3 5 0 0 2 5 4 0 0 1 3 3 1 0 0 0 0 0 0 0 0 0 4 100 58 100 100 5 0 0 0 0 5 5 5 5 5
4 5 0 0 0 5 21 9 5 5 10 12 5 2 1 0 0 4 5 0 0 0 0 43 9 0 0 8 1 0 0 0 0 0 0 100 100 80 100 100 8 4 0 3 68 20 5 5 5
17 5 4 0 5 5 10 92 83 2 0 0 0 0 0 0 0 0 0 0 0 2 94 100 100 43 9 100 89 5 0 0 0 0 0 0 37 100 100 59 29 5 5 4 17 5 5 5 3
100 31 19 43 100 99 45 95 95 12 5 2 0 0 0 0 0 0 0 46 1 74 100 99 100 21 30 98 100 97 4 0 0 0 18 33 88 90 100 49 94 100 86 14 9 5 3 0 1
96 94 100 57 95 74 100 41 79 20 5 4 0 0 0 0 0 0 15 26 97 100 100 100 94 57 83 100 100 68 0 2 12 14 85 100 100 100 95 99 100 100 100 100 100 100 97 91 30
100 100 100 97 70 5 5 9 58 70 5 5 0 0 0 0 0 18 1 26 100 99 100 67 100 70 78 100 100 100 100 98 100 100 100 100 100 100 79 96 100 100 100 98 54 81 94 100 100
98 90 96 100 100 100 100 92 100 96 5 3 0 2 0 0 0 1 84 100 100 100 100 47 100 100 100 78 100 100 74 100 100 100 98 100 94 100 100 98 82 100 100 76 91 67 45 69 100
5 5 63 80 77 62 5 5 5 5 4 1 0 0 5 0 0 34 97 100 100 100 94 96 100 100 100 94 94 100 100 100 100 100 100 96 100 100 100 100 100 98 100 91 73 45 29 31 81
4 5 43 33 78 25 5 5 2 0 0 0 0 0 2 28 10 100 90 100 100 100 100 81 100 100 100 100 100 100 100 96 100 70 77 91 61 85 100 100 100 100 100 100 100 49 70 94 100
64 52 11 5 62 10 5 4 0 0 0 0 0 5 43 100 99 100 98 95 100 100 100 100 100 100 100 100 100 100 100 97 100 100 100 94 96 100 100 100 100 100 86 18 41 44 17 7 60
16 92 36 10 12 22 5 0 0 8 7 2 5 28 40 100 96 99 96 100 100 100 97 90 89 44 62 96 100 100 100 100 100 100 100 100 100 100 100 100 100 100 100 100 100 100 100 100 45
100 81 86 88 52 64 4 2 4 9 5 5 5 15 75 86 61 100 100 100 100 72 100 100 100 100 100 86 32 61 93 81 99 100 99 90 99 97 100 100 100 100 100 100 100 100 100 100 99
58 26 7 5 13 10 6 6 5 5 5 8 8 5 16 58 62 98 98 36 4 63 98 66 26 6 18 26 82 90 100 100 100 100 95 57 100 100 100 98 100 100 92 100 100 100 100 100 100
5 1 4 5 6 14 14 4 4 5 5 4 0 0 4 68 4 31 0 0 2 4 4 1 0 5 3 5 5 6 5 39 46 30 35 66 97 94 94 100 98 91 100 100 87 100 97 79 96